User: anonymous   Login
Location: Fort Frances
(48.6170°N, 93.4170°W)
Time: 11:24:32
(UTC-05:00)
Language:

Iridium 53 - Orbit

View from above orbital plane
View from above orbital plane
View from above satellite
View from above satellite

Ground track
Ground track

The orbit data is extracted from the following two-line orbital elements,

1 25173U 98010E   17080.92798059 +.00000148 +00000-0 +45899-4 0  9993
2 25173 086.3996 026.8379 0002290 085.5534 274.5923 14.34219833998982
Epoch (UTC): 21 March 2017 22:16:17
Eccentricity: 0.0002290
inclination: 86.3996°
perigee height: 776 km
apogee height: 779 km
right ascension of ascending node: 26.8379°
argument of perigee: 85.5534°
revolutions per day: 14.34219833
mean anomaly at epoch: 274.5923°
orbit number at epoch: 99898

The dashed part of the orbit path shows where the satellite is in the earth's shadow,  

DLR